Flag for Greece Weather past 2 weeks in Heraklion, Crete, Greece

Now
68 °F

Sunny.


Feels Like: 68 °F
Forecast: 52 / 67 °F
Wind: 10 mph from Southeast

Location: Heraklion Airport

Current Time: Apr 1, 2015 at 11:49:44 AM

Latest Report: Apr 1, 2015 at 10:50 AM


Visibility: 10 mi

Pressure: 29.92 "Hg

Humidity: 53%

Dew point: 50 °F

Location of HeraklionLocation

Historic Weather in Heraklion — Graph

°F

Heraklion temperature yesterday

Maximum temperature yesterday: 61 °F (at 2:50 PM)
Minimum temperature yesterday: 54 °F (at 10:50 PM)
Average temperature yesterday: 58 °F

Past Weeks' High & Low Weather Summary

 TemperatureHumidityPressure
High73 °F (Mar 27, 11:50 AM)94% (Mar 24, 6:20 AM)30.24 "Hg (Mar 24, 6:20 AM)
Low43 °F (Mar 20, 1:50 AM)46% (Mar 26, 8:50 AM)29.59 "Hg (Mar 28, 5:50 AM)
Average58 °F69%29.95 "Hg
* Reported Mar 17 9:20 AM — Apr 1 10:50 AM, Heraklion, Weather by CustomWeather, © 2015

Note: Actual official high and low records may vary slightly from our data, if they occured in-between our weather recording intervals... More about our weather records

Advertising

Heraklion weather history for previous 24 hours

 ConditionsComfort  
Time TempWeatherWind HumidityBarometerVisibility
10:50 AM
Wed, Apr 1
68 °FSunny.10 mph53%29.92 "Hg10 mi
10:20 AM66 °FSunny.12 mph56%29.92 "Hg10 mi
9:50 AM64 °FSunny.12 mph56%29.89 "Hg10 mi
9:20 AM61 °FSunny.13 mph52%29.89 "Hg10 mi
8:50 AM61 °FSunny.13 mph52%29.89 "Hg10 mi
8:20 AM57 °FSunny.12 mph59%29.89 "Hg10 mi
7:50 AM55 °FClear.10 mph59%29.89 "Hg10 mi
7:20 AM55 °FClear.15 mph63%29.89 "Hg10 mi
6:50 AM54 °FClear.13 mph67%29.89 "Hg10 mi
6:20 AM54 °FPassing clouds.14 mph77%29.89 "HgN/A
5:50 AM54 °FPassing clouds.14 mph77%29.89 "HgN/A
4:50 AM50 °FPassing clouds.12 mph88%29.89 "HgN/A
3:50 AM50 °FPassing clouds.12 mph88%29.92 "HgN/A
3:20 AM50 °FPassing clouds.9 mph82%29.92 "HgN/A
2:50 AM50 °FPassing clouds.10 mph82%29.92 "HgN/A
2:20 AM50 °FPassing clouds.8 mph82%29.92 "HgN/A
1:50 AM50 °FPassing clouds.7 mph82%29.92 "HgN/A
12:50 AM52 °FPassing clouds.10 mph88%29.92 "HgN/A
12:20 AM54 °FPassing clouds.6 mph77%29.95 "HgN/A
11:50 PM
Tue, Mar 31
54 °FPassing clouds.6 mph77%29.95 "HgN/A
11:20 PM54 °FPassing clouds.5 mph82%29.95 "HgN/A
10:50 PM54 °FPassing clouds.6 mph82%29.95 "HgN/A
9:50 PM57 °FPassing clouds.14 mph77%29.92 "HgN/A
9:20 PM57 °FPassing clouds.14 mph82%29.89 "HgN/A
8:50 PM57 °FPassing clouds.14 mph82%29.89 "HgN/A
8:20 PM59 °FScattered clouds.13 mph77%29.89 "HgN/A
7:50 PM59 °FScattered clouds.17 mph77%29.89 "HgN/A
7:20 PM59 °FScattered clouds.15 mph77%29.86 "HgN/A
6:50 PM59 °FScattered clouds.16 mph77%29.86 "HgN/A
6:20 PM59 °FBroken clouds.18 mph77%29.86 "HgN/A
5:50 PM59 °FBroken clouds.21 mph77%29.86 "HgN/A
5:20 PM61 °FScattered clouds.21 mph72%29.83 "HgN/A
4:50 PM61 °FPartly sunny.23 mph72%29.83 "HgN/A
4:20 PM61 °FScattered clouds.23 mph72%29.83 "HgN/A
3:50 PM61 °FScattered clouds.26 mph72%29.83 "HgN/A
3:20 PM61 °FScattered clouds.23 mph72%29.80 "HgN/A
2:50 PM61 °FBroken clouds.18 mph59%29.83 "HgN/A
2:20 PM59 °FBroken clouds.15 mph77%29.83 "HgN/A
1:50 PM59 °FBroken clouds.16 mph77%29.80 "HgN/A
1:20 PM59 °FMostly cloudy.21 mph82%29.80 "HgN/A
12:50 PM59 °FMostly cloudy.24 mph82%29.80 "HgN/A
12:20 PM59 °FMostly cloudy.21 mph82%29.80 "HgN/A
11:50 AM59 °FMostly cloudy.15 mph88%29.80 "HgN/A
11:20 AM55 °FLight rain. More clouds than sun.15 mph94%29.74 "Hg5 mi
Weather by CustomWeather, © 2015

See weather overviewHow to use our weather pages